Tiempo cada hora Barnimie

Hoy, 8 Marzo, Lunes

Tiempo Temperatura Precipitaciones Viento Presión Humedad
00:00 -2°C° 0 mm 2 mps 755 mmHg 80%
01:00 -2°C° 0 mm 2 mps 755 mmHg 76%
02:00 -3°C° 0 mm 2 mps 755 mmHg 75%
03:00 -3°C° 0 mm 2 mps 755 mmHg 73%
04:00 -3°C° 0 mm 2 mps 756 mmHg 71%
05:00 -3°C° 0 mm 2 mps 756 mmHg 71%
06:00 -3°C° 0 mm 2 mps 756 mmHg 72%
07:00 -3°C° 0 mm 2 mps 757 mmHg 72%
08:00 -1°C° 0 mm 2 mps 757 mmHg 63%
09:00 0°C° 0 mm 3 mps 758 mmHg 55%
10:00 +1°C° 0 mm 3 mps 759 mmHg 47%
11:00 +2°C° 0 mm 3 mps 759 mmHg 45%
12:00 +2°C° 0 mm 3 mps 759 mmHg 43%
13:00 +3°C° 0 mm 3 mps 759 mmHg 41%
14:00 +3°C° 0 mm 3 mps 759 mmHg 42%
15:00 +2°C° 0 mm 3 mps 759 mmHg 44%
16:00 +2°C° 0 mm 3 mps 759 mmHg 45%
17:00 +1°C° 0 mm 3 mps 759 mmHg 52%
18:00 -1°C° 0 mm 2 mps 759 mmHg 60%
19:00 -2°C° 0 mm 2 mps 759 mmHg 68%
20:00 -3°C° 0 mm 2 mps 759 mmHg 69%
21:00 -1°C° 0 mm 1 mps 759 mmHg 71%
22:00 -1°C° 0 mm 1 mps 759 mmHg 73%
23:00 -1°C° 0 mm 1 mps 759 mmHg 73%

Mañana, 9 Marzo, Martes

Tiempo Temperatura Precipitaciones Viento Presión Humedad
00:00 -1°C° 0 mm 1 mps 759 mmHg 74%
01:00 -1°C° 0 mm 1 mps 759 mmHg 74%
02:00 -1°C° 0 mm 1 mps 759 mmHg 75%
03:00 -1°C° 0 mm 1 mps 759 mmHg 75%
04:00 -1°C° 0 mm 1 mps 758 mmHg 76%
05:00 -1°C° 0 mm 1 mps 758 mmHg 75%
06:00 -1°C° 0 mm 1 mps 758 mmHg 75%
07:00 -1°C° 0 mm 1 mps 758 mmHg 75%
08:00 0°C° 0 mm 1 mps 758 mmHg 67%
09:00 +1°C° 0 mm 1 mps 758 mmHg 60%
10:00 +1°C° 0 mm 2 mps 758 mmHg 52%
11:00 +3°C° 0 mm 1 mps 758 mmHg 46%
12:00 +4°C° 0 mm 1 mps 758 mmHg 41%
13:00 +5°C° 0 mm 1 mps 758 mmHg 35%
14:00 +5°C° 0 mm 1 mps 758 mmHg 35%
15:00 +4°C° 0 mm 1 mps 757 mmHg 35%
16:00 +4°C° 0 mm 1 mps 757 mmHg 35%
17:00 +3°C° 0 mm 1 mps 757 mmHg 40%
18:00 +1°C° 0 mm 0 mps 757 mmHg 45%
19:00 -1°C° 0 mm 0 mps 757 mmHg 50%
20:00 0°C° 0 mm 1 mps 757 mmHg 52%
21:00 0°C° 0 mm 1 mps 758 mmHg 53%
22:00 -1°C° 0 mm 1 mps 758 mmHg 55%
23:00 -1°C° 0 mm 1 mps 758 mmHg 55%

Pasado mañana, 10 Marzo, Miércoles

Tiempo Temperatura Precipitaciones Viento Presión Humedad
00:00 -1°C° 0 mm 1 mps 758 mmHg 55%
01:00 -1°C° 0 mm 1 mps 757 mmHg 56%
02:00 -1°C° 0 mm 1 mps 757 mmHg 56%
03:00 -2°C° 0 mm 0 mps 757 mmHg 56%
04:00 -2°C° 0 mm 0 mps 757 mmHg 56%
05:00 -2°C° 0 mm 0 mps 757 mmHg 55%
06:00 -2°C° 0 mm 0 mps 758 mmHg 55%
07:00 -2°C° 0 mm 0 mps 758 mmHg 54%
08:00 +1°C° 0 mm 1 mps 758 mmHg 49%
09:00 +2°C° 0 mm 1 mps 758 mmHg 44%
10:00 +4°C° 0 mm 1 mps 758 mmHg 39%
11:00 +4°C° 0 mm 2 mps 758 mmHg 37%
12:00 +4°C° 0 mm 2 mps 758 mmHg 35%
13:00 +5°C° 0 mm 2 mps 758 mmHg 33%
14:00 +5°C° 0 mm 2 mps 758 mmHg 35%
15:00 +5°C° 0 mm 2 mps 757 mmHg 37%
16:00 +4°C° 0 mm 3 mps 757 mmHg 40%
17:00 +2°C° 0 mm 3 mps 757 mmHg 46%
18:00 +1°C° 0 mm 3 mps 757 mmHg 52%
19:00 -1°C° 0 mm 2 mps 757 mmHg 58%
20:00 -1°C° 0 mm 3 mps 757 mmHg 57%
21:00 -2°C° 0 mm 4 mps 757 mmHg 57%
22:00 -2°C° 0 mm 4 mps 757 mmHg 56%
23:00 -2°C° 0 mm 5 mps 756 mmHg 57%

11 Marzo, Jueves

Tiempo Temperatura Precipitaciones Viento Presión Humedad
00:00 -2°C° 0 mm 5 mps 755 mmHg 57%
01:00 -2°C° 0 mm 5 mps 755 mmHg 57%
02:00 -2°C° 0 mm 5 mps 754 mmHg 61%
03:00 -1°C° 0 mm 5 mps 753 mmHg 64%
04:00 -1°C° 0 mm 5 mps 752 mmHg 67%
05:00 -2°C° 0 mm 6 mps 751 mmHg 70%
06:00 -2°C° 0 mm 6 mps 750 mmHg 73%
07:00 -1°C° 0 mm 6 mps 749 mmHg 77%
08:00 -1°C° 0.6 mm 7 mps 749 mmHg 82%
09:00 0°C° 0.6 mm 7 mps 748 mmHg 87%
10:00 0°C° 0.6 mm 8 mps 747 mmHg 93%
11:00 0°C° 1.4 mm 8 mps 746 mmHg 93%
12:00 0°C° 1.4 mm 7 mps 745 mmHg 93%
13:00 0°C° 1.4 mm 7 mps 745 mmHg 92%
14:00 +2°C° 1.2 mm 7 mps 744 mmHg 92%
15:00 +3°C° 1.2 mm 6 mps 743 mmHg 92%
16:00 +4°C° 1.2 mm 6 mps 742 mmHg 92%
17:00 +4°C° 0.5 mm 6 mps 742 mmHg 91%
18:00 +6°C° 0.5 mm 5 mps 742 mmHg 90%
19:00 +6°C° 0.5 mm 5 mps 741 mmHg 88%
20:00 +6°C° 0.1 mm 5 mps 742 mmHg 87%
21:00 +5°C° 0.1 mm 5 mps 742 mmHg 85%
22:00 +5°C° 0.1 mm 5 mps 742 mmHg 83%
23:00 +5°C° 0 mm 5 mps 743 mmHg 84%

12 Marzo, Viernes

Tiempo Temperatura Precipitaciones Viento Presión Humedad
00:00 +3°C° 0 mm 6 mps 743 mmHg 85%
01:00 +3°C° 0 mm 6 mps 743 mmHg 86%
02:00 +3°C° 0 mm 6 mps 743 mmHg 86%
03:00 +3°C° 0 mm 6 mps 743 mmHg 85%
04:00 +2°C° 0 mm 6 mps 743 mmHg 85%
05:00 +2°C° 0 mm 7 mps 744 mmHg 84%
06:00 +2°C° 0 mm 7 mps 744 mmHg 84%
07:00 +2°C° 0 mm 7 mps 745 mmHg 83%
08:00 +3°C° 0.1 mm 7 mps 746 mmHg 79%
09:00 +3°C° 0.1 mm 7 mps 746 mmHg 76%
10:00 +4°C° 0.1 mm 8 mps 747 mmHg 72%
11:00 +4°C° 0.1 mm 8 mps 747 mmHg 69%
12:00 +5°C° 0.1 mm 8 mps 747 mmHg 66%
13:00 +5°C° 0.1 mm 8 mps 747 mmHg 63%
14:00 +5°C° 0 mm 7 mps 747 mmHg 63%
15:00 +5°C° 0 mm 6 mps 747 mmHg 63%
16:00 +6°C° 0 mm 5 mps 747 mmHg 62%
17:00 +5°C° 0 mm 5 mps 747 mmHg 67%
18:00 +5°C° 0 mm 4 mps 747 mmHg 71%
19:00 +4°C° 0 mm 4 mps 747 mmHg 76%
20:00 +4°C° 0 mm 4 mps 747 mmHg 78%
21:00 +3°C° 0 mm 4 mps 747 mmHg 81%
22:00 +3°C° 0 mm 4 mps 747 mmHg 83%
23:00 +3°C° 0 mm 4 mps 747 mmHg 83%

13 Marzo, Sábado

Tiempo Temperatura Precipitaciones Viento Presión Humedad
00:00 +2°C° 0 mm 5 mps 746 mmHg 83%
01:00 +2°C° 0 mm 5 mps 746 mmHg 82%
02:00 +2°C° 0 mm 5 mps 745 mmHg 82%
03:00 +2°C° 0 mm 5 mps 745 mmHg 82%
04:00 +2°C° 0 mm 5 mps 744 mmHg 81%
05:00 +2°C° 0 mm 5 mps 745 mmHg 82%
06:00 +2°C° 0 mm 5 mps 745 mmHg 83%
07:00 +3°C° 0 mm 5 mps 745 mmHg 85%
08:00 +3°C° 0 mm 6 mps 745 mmHg 80%
09:00 +4°C° 0 mm 6 mps 745 mmHg 76%
10:00 +5°C° 0 mm 7 mps 745 mmHg 71%
11:00 +5°C° 0.1 mm 7 mps 745 mmHg 66%
12:00 +6°C° 0.1 mm 7 mps 746 mmHg 61%
13:00 +8°C° 0.1 mm 6 mps 746 mmHg 56%
14:00 +7°C° 0.2 mm 6 mps 746 mmHg 57%
15:00 +7°C° 0.2 mm 6 mps 746 mmHg 58%
16:00 +7°C° 0.2 mm 6 mps 746 mmHg 60%
17:00 +6°C° 0.2 mm 5 mps 746 mmHg 65%
18:00 +4°C° 0.2 mm 4 mps 746 mmHg 71%
19:00 +3°C° 0.2 mm 3 mps 746 mmHg 76%
20:00 +3°C° 0 mm 3 mps 746 mmHg 78%
21:00 +3°C° 0 mm 3 mps 747 mmHg 80%
22:00 +2°C° 0 mm 3 mps 747 mmHg 81%
23:00 +1°C° 0 mm 4 mps 747 mmHg 83%
Mostrar más

Necesitamos Su Consentimiento

Meteoprog y nuestros Proveedores de Servicios pueden almacenar y acceder a sus datos personales como cookies, identificadores de dispositivo u otras tecnologías similares de su dispositivo y procesar dichos datos para personalizar contenido y anuncios, además de ofrecer funciones de redes sociales y analizar el tráfico.

  • Almacenar y/o acceder a información en su dispositivo

    Se puede almacenar o acceder a cookies, identificadores de dispositivo u otra información de su dispositivo para los fines anteriormente indicados.

  • Anuncios y contenido personalizados, medición de anuncios y contenido, percepciones del público, y desarrollo de productos

    Los anuncios y el contenido pueden personalizarse en base a su perfil. Se pueden añadir más datos para personalizar mejor los anuncios y contenidos. Se puede medir el rendimiento de los anuncios y contenidos. Se puede obtener la percepción sobre el público que ha visto los anuncios y contenidos. Dichos datos pueden usarse para desarrollar o mejorar la experiencia del usuario, sistemas y software.

Al hacer clic en ‘Estoy De Acuerdo’ usted permitirá el uso de las cookies, identificadores de dispositivo, balizas web u otras tecnologías similares indicadas. Su configuración puede cambiarse desde el navegador de su dispositivo.

Para ciertos fines, los intereses legítimos pueden ser considerados por encima del consentimiento. Puede leer más sobre ello en nuestra Política de Privacidad y Cookies.